Location: Fishcreek Rd Observing Site
(41.1865°N, 81.4271°W)
Time: 07:51:13
(UTC-04:00)

Iridium 75 - Visible Passes

Search period start: 01 August 2014 00:00
Search period end: 11 August 2014 00:00
Orbit: 776 x 779 km, 86.4° (Epoch: 31 July)

Date Brightness Start Highest point End Pass type
(mag) Time Alt. Az. Time Alt. Az. Time Alt. Az.
01 Aug 6.5 01:12:10 57° N 01:12:10 57° N 01:16:18 10° N visible
01 Aug 8.4 02:52:39 11° WNW 02:52:39 11° WNW 02:53:36 10° WNW visible
02 Aug 6.9 00:38:45 40° NE 00:38:45 40° NE 00:42:36 10° NNE visible
02 Aug 7.9 02:19:13 19° WNW 02:19:13 19° WNW 02:22:22 10° NNW visible
03 Aug 7.6 00:05:20 24° ENE 00:05:20 24° ENE 00:08:33 10° NNE visible
03 Aug 7.3 01:45:48 33° WNW 01:45:48 33° WNW 01:49:36 10° NNW visible
03 Aug 8.1 23:31:54 14° ENE 23:31:54 14° ENE 23:33:47 10° NE visible
04 Aug 6.7 01:12:22 50° NNW 01:12:22 50° NNW 01:16:23 10° N visible
05 Aug 6.7 00:38:56 50° NNE 00:38:56 50° NNE 00:42:51 10° N visible
05 Aug 8.3 02:19:24 14° WNW 02:19:24 14° WNW 02:21:33 10° NW visible
06 Aug 7.2 00:05:29 32° NE 00:05:29 32° NE 00:09:02 10° NNE visible
06 Aug 7.8 01:45:57 24° WNW 01:45:57 24° WNW 01:49:19 10° NNW visible
06 Aug 7.8 23:32:02 19° ENE 23:32:02 19° ENE 23:34:46 10° NNE visible
07 Aug 7.1 01:12:30 39° NW 01:12:30 39° NW 01:16:20 10° N visible
07 Aug 8.3 22:58:35 11° ENE 22:58:35 11° ENE 22:59:10 10° ENE visible
08 Aug 6.7 00:39:03 52° N 00:39:03 52° N 00:42:59 10° N visible
09 Aug 6.9 00:05:35 42° NE 00:05:35 42° NE 00:09:21 10° NNE visible
09 Aug 8.2 01:46:03 17° WNW 01:46:03 17° WNW 01:48:47 10° NNW visible
09 Aug 7.4 23:32:07 26° ENE 23:32:07 26° ENE 23:35:23 10° NNE visible
10 Aug 7.6 01:12:35 29° WNW 01:12:35 29° WNW 01:16:10 10° NNW visible
10 Aug 7.9 22:58:39 16° ENE 22:58:39 16° ENE 23:00:49 10° NE visible
